| time (UTC) | temp F | wind direction | speed MPH | gust MPH | rain 1hr in | rain 24hr in | rain mn in | humidity % | barometer mb |
| 20260506013831 | 52 | 19 | 5.0 | 13.0 | 0.00 | 0.00 | 0.00 | 1 | 1011.0 |
| 20260506012819 | 52 | 19 | 6.0 | 14.0 | 0.00 | 0.00 | 0.00 | 1 | 1011.0 |
| 20260506011817 | 52 | 22 | 7.0 | 14.0 | 0.00 | 0.00 | 0.00 | 1 | 1011.0 |
| 20260506010743 | 52 | 53 | 7.0 | 14.0 | 0.00 | 0.00 | 0.00 | 1 | 1011.2 |
| 20260506004628 | 52 | 24 | 7.0 | 13.0 | 0.00 | 0.00 | 0.00 | 1 | 1011.2 |
| 20260506003607 | 52 | 26 | 7.0 | 13.0 | 0.00 | 0.00 | 0.00 | 1 | 1011.3 |
| 20260506002611 | 52 | 33 | 7.0 | 13.0 | 0.00 | 0.00 | 0.00 | 1 | 1011.3 |
| 20260506001627 | 52 | 19 | 7.0 | 13.0 | 0.00 | 0.00 | 0.00 | 1 | 1011.3 |
| 20260506000603 | 52 | 40 | 6.0 | 14.0 | 0.00 | 0.00 | 0.00 | 1 | 1011.4 |
| 20260505235609 | 53 | 55 | 8.0 | 18.0 | 0.00 | 0.00 | 0.00 | 1 | 1011.4 |
| 20260505234600 | 53 | 41 | 8.0 | 18.0 | 0.00 | 0.00 | 0.00 | 1 | 1011.4 |
| 20260505233619 | 53 | 65 | 8.0 | 17.0 | 0.00 | 0.00 | 0.00 | 1 | 1011.4 |
| 20260505232635 | 53 | 14 | 7.0 | 14.0 | 0.00 | 0.00 | 0.00 | 1 | 1011.4 |
| 20260505231639 | 53 | 5 | 7.0 | 17.0 | 0.00 | 0.00 | 0.00 | 1 | 1011.3 |
| 20260505230616 | 53 | 24 | 8.0 | 17.0 | 0.00 | 0.00 | 0.00 | 1 | 1011.3 |
| 20260505225541 | 53 | 75 | 8.0 | 15.0 | 0.00 | 0.00 | 0.00 | 1 | 1011.4 |
| 20260505223350 | 53 | 36 | 8.0 | 16.0 | 0.00 | 0.00 | 0.00 | 1 | 1011.5 |
| 20260505222346 | 53 | 72 | 9.0 | 17.0 | 0.00 | 0.00 | 0.00 | 1 | 1011.5 |
| 20260505221410 | 53 | 36 | 7.0 | 17.0 | 0.00 | 0.00 | 0.00 | 1 | 1011.5 |
| 20260505220343 | 53 | 59 | 7.0 | 15.0 | 0.00 | 0.00 | 0.00 | 1 | 1011.5 |
| 20260505214226 | 53 | 28 | 7.0 | 16.0 | 0.00 | 0.00 | 0.00 | 1 | 1011.4 |
| 20260505213234 | 53 | 57 | 5.0 | 14.0 | 0.00 | 0.00 | 0.00 | 1 | 1011.5 |
| 20260505212201 | 53 | 71 | 6.0 | 15.0 | 0.00 | 0.00 | 0.00 | 1 | 1011.5 |
| 20260505211149 | 53 | 34 | 6.0 | 15.0 | 0.00 | 0.00 | 0.00 | 1 | 1011.5 |
| 20260505204953 | 53 | 71 | 4.0 | 11.0 | 0.00 | 0.00 | 0.00 | 1 | 1011.4 |
| 20260505204000 | 53 | 56 | 4.0 | 10.0 | 0.00 | 0.00 | 0.00 | 1 | 1011.4 |
| 20260505202950 | 53 | 58 | 5.0 | 13.0 | 0.00 | 0.00 | 0.00 | 1 | 1011.4 |
| 20260505201914 | 53 | 60 | 6.0 | 13.0 | 0.00 | 0.00 | 0.00 | 1 | 1011.3 |
| 20260505200904 | 53 | 57 | 5.0 | 13.0 | 0.00 | 0.00 | 0.00 | 1 | 1011.2 |
| 20260505195900 | 53 | 70 | 5.0 | 13.0 | 0.00 | 0.00 | 0.00 | 1 | 1011.1 |
| 20260505194837 | 53 | 34 | 4.0 | 10.0 | 0.00 | 0.00 | 0.00 | 1 | 1010.9 |
| 20260505193810 | 53 | 69 | 4.0 | 10.0 | 0.00 | 0.00 | 0.00 | 1 | 1010.9 |
| 20260505192758 | 54 | 58 | 4.0 | 9.0 | 0.00 | 0.00 | 0.00 | 1 | 1010.8 |
| 20260505191801 | 54 | 54 | 4.0 | 10.0 | 0.00 | 0.00 | 0.00 | 1 | 1010.7 |
| 20260505190742 | 54 | 67 | 4.0 | 12.0 | 0.00 | 0.00 | 0.00 | 1 | 1010.7 |
| 20260505185745 | 55 | 52 | 4.0 | 12.0 | 0.00 | 0.00 | 0.00 | 1 | 1010.6 |
| 20260505184724 | 55 | 42 | 5.0 | 12.0 | 0.00 | 0.00 | 0.00 | 1 | 1010.5 |
| 20260505183700 | 55 | 45 | 5.0 | 12.0 | 0.00 | 0.00 | 0.00 | 1 | 1010.5 |
| 20260505182723 | 56 | 22 | 4.0 | 12.0 | 0.00 | 0.00 | 0.00 | 3 | 1010.5 |
| 20260505181707 | 56 | 62 | 4.0 | 10.0 | 0.00 | 0.00 | 0.00 | 6 | 1010.5 |
| 20260505180714 | 56 | 79 | 4.0 | 11.0 | 0.00 | 0.00 | 0.00 | 5 | 1010.5 |
| 20260505175643 | 56 | 54 | 4.0 | 11.0 | 0.00 | 0.00 | 0.00 | 5 | 1010.5 |
| 20260505173438 | 56 | 82 | 4.0 | 10.0 | 0.00 | 0.00 | 0.00 | 1 | 1010.5 |
| 20260505172412 | 56 | 53 | 4.0 | 11.0 | 0.00 | 0.00 | 0.00 | 5 | 1010.4 |
| 20260505170230 | 57 | 32 | 4.0 | 11.0 | 0.00 | 0.00 | 0.00 | 14 | 1010.5 |
| 20260505165244 | 57 | 46 | 5.0 | 11.0 | 0.00 | 0.00 | 0.00 | 19 | 1010.5 |
| 20260505164212 | 57 | 64 | 5.0 | 10.0 | 0.00 | 0.00 | 0.00 | 14 | 1010.6 |
| 20260505163157 | 57 | 35 | 4.0 | 13.0 | 0.00 | 0.00 | 0.00 | 12 | 1010.5 |
| 20260505162204 | 57 | 78 | 6.0 | 13.0 | 0.00 | 0.00 | 0.00 | 17 | 1010.4 |
| 20260505161132 | 57 | 78 | 5.0 | 13.0 | 0.00 | 0.00 | 0.00 | 13 | 1010.5 |
| 20260505152709 | 57 | 71 | 5.0 | 12.0 | 0.00 | 0.00 | 0.00 | 1 | 1010.8 |
| 20260505151714 | 57 | 44 | 5.0 | 12.0 | 0.00 | 0.00 | 0.00 | 1 | 1010.8 |
| 20260505150642 | 57 | 51 | 5.0 | 12.0 | 0.00 | 0.00 | 0.00 | 1 | 1010.9 |
| 20260505140621 | 57 | 83 | 6.0 | 14.0 | 0.00 | 0.00 | 0.00 | 1 | 1011.3 |
| 20260505130309 | 57 | 23 | 6.0 | 13.0 | 0.00 | 0.00 | 0.00 | 1 | 1011.3 |
| 20260505124217 | 57 | 78 | 5.0 | 12.0 | 0.00 | 0.00 | 0.00 | 1 | 1011.3 |
| 20260505123230 | 57 | 58 | 6.0 | 12.0 | 0.00 | 0.00 | 0.00 | 1 | 1011.4 |
| 20260505121041 | 56 | 76 | 6.0 | 12.0 | 0.00 | 0.00 | 0.00 | 1 | 1011.3 |
| 20260505120041 | 57 | 71 | 7.0 | 14.0 | 0.00 | 0.00 | 0.00 | 1 | 1011.4 |
| 20260505115105 | 58 | 79 | 6.0 | 14.0 | 0.00 | 0.00 | 0.00 | 1 | 1011.5 |
| 20260505114115 | 57 | 34 | 5.0 | 13.0 | 0.00 | 0.00 | 0.00 | 1 | 1011.5 |
| 20260505113123 | 57 | 74 | 6.0 | 13.0 | 0.00 | 0.00 | 0.00 | 1 | 1011.6 |
| 20260505112101 | 56 | 68 | 6.0 | 12.0 | 0.00 | 0.00 | 0.00 | 1 | 1011.5 |
| 20260505111105 | 56 | 30 | 6.0 | 14.0 | 0.00 | 0.00 | 0.00 | 1 | 1011.6 |
| 20260505110116 | 56 | 50 | 6.0 | 14.0 | 0.00 | 0.00 | 0.00 | 1 | 1011.6 |
| 20260505101930 | 55 | 28 | 6.0 | 11.0 | 0.00 | 0.00 | 0.00 | 1 | 1011.9 |
| 20260505100937 | 56 | 51 | 6.0 | 11.0 | 0.00 | 0.00 | 0.00 | 1 | 1011.9 |
| 20260505100544 | 56 | 27 | 6.0 | 12.0 | 0.00 | 0.00 | 0.00 | 1 | 1012.0 |
| 20260505095542 | 56 | 15 | 6.0 | 12.0 | 0.00 | 0.00 | 0.00 | 1 | 1012.0 |
| 20260505094549 | 56 | 33 | 5.0 | 12.0 | 0.00 | 0.00 | 0.00 | 1 | 1012.0 |
| 20260505092443 | 56 | 55 | 5.0 | 12.0 | 0.00 | 0.00 | 0.00 | 1 | 1012.1 |
| 20260505091455 | 56 | 40 | 6.0 | 12.0 | 0.00 | 0.00 | 0.00 | 1 | 1012.0 |
| 20260505090511 | 55 | 38 | 6.0 | 11.0 | 0.00 | 0.00 | 0.00 | 1 | 1012.0 |
| 20260505085535 | 55 | 56 | 5.0 | 12.0 | 0.00 | 0.00 | 0.00 | 1 | 1012.0 |
| 20260505084525 | 55 | 48 | 5.0 | 12.0 | 0.00 | 0.00 | 0.00 | 1 | 1012.1 |
| 20260505083456 | 55 | 35 | 6.0 | 10.0 | 0.00 | 0.00 | 0.00 | 1 | 1012.1 |
| 20260505082444 | 55 | 23 | 5.0 | 11.0 | 0.00 | 0.00 | 0.00 | 1 | 1011.9 |
| 20260505081416 | 54 | 11 | 6.0 | 13.0 | 0.00 | 0.00 | 0.00 | 1 | 1011.9 |
| 20260505080438 | 54 | 71 | 7.0 | 13.0 | 0.00 | 0.00 | 0.00 | 1 | 1011.9 |
| 20260505075402 | 54 | 44 | 5.0 | 12.0 | 0.00 | 0.00 | 0.00 | 1 | 1011.9 |
| 20260505074346 | 54 | 34 | 4.0 | 11.0 | 0.00 | 0.00 | 0.00 | 1 | 1011.9 |
| 20260505073402 | 53 | 53 | 5.0 | 11.0 | 0.00 | 0.00 | 0.00 | 1 | 1012.0 |
| 20260505072343 | 53 | 44 | 5.0 | 11.0 | 0.00 | 0.00 | 0.00 | 1 | 1012.0 |
| 20260505071358 | 53 | 63 | 4.0 | 10.0 | 0.00 | 0.00 | 0.00 | 1 | 1012.1 |
| 20260505070355 | 53 | 53 | 6.0 | 11.0 | 0.00 | 0.00 | 0.00 | 1 | 1012.0 |
| 20260505064303 | 53 | 38 | 6.0 | 12.0 | 0.00 | 0.00 | 0.00 | 1 | 1011.9 |
| 20260505063322 | 53 | 49 | 6.0 | 12.0 | 0.00 | 0.00 | 0.00 | 1 | 1011.8 |
| 20260505062309 | 52 | 66 | 5.0 | 10.0 | 0.00 | 0.00 | 0.00 | 1 | 1011.9 |
| 20260505061303 | 52 | 53 | 4.0 | 10.0 | 0.00 | 0.00 | 0.00 | 1 | 1012.1 |
| 20260505060314 | 52 | 26 | 3.0 | 9.0 | 0.00 | 0.00 | 0.00 | 1 | 1012.2 |
| 20260505055242 | 51 | 54 | 4.0 | 8.0 | 0.00 | 0.00 | 0.00 | 1 | 1012.2 |
| 20260505054258 | 51 | 32 | 2.0 | 8.0 | 0.00 | 0.00 | 0.00 | 1 | 1012.2 |
| 20260505053307 | 51 | 49 | 2.0 | 7.0 | 0.00 | 0.00 | 0.00 | 1 | 1012.2 |
| 20260505052327 | 51 | 52 | 2.0 | 6.0 | 0.00 | 0.00 | 0.00 | 1 | 1012.2 |
| 20260505051259 | 51 | 60 | 2.0 | 7.0 | 0.00 | 0.00 | 0.00 | 1 | 1012.2 |
| 20260505050247 | 50 | 49 | 3.0 | 8.0 | 0.00 | 0.00 | 0.00 | 1 | 1012.2 |
| 20260505041000 | 51 | 71 | 3.0 | 10.0 | 0.00 | 0.00 | 0.00 | 1 | 1012.1 |
| 20260505040015 | 51 | 47 | 3.0 | 10.0 | 0.00 | 0.00 | 0.00 | 1 | 1012.2 |
| 20260505035014 | 51 | 71 | 3.0 | 8.0 | 0.00 | 0.00 | 0.00 | 1 | 1012.2 |
| 20260505032841 | 51 | 17 | 2.0 | 5.0 | 0.00 | 0.00 | 0.00 | 1 | 1012.2 |
| 20260505030716 | 52 | 44 | 4.0 | 10.0 | 0.00 | 0.00 | 0.00 | 1 | 1012.5 |
| 20260505023445 | 52 | 34 | 4.0 | 10.0 | 0.00 | 0.00 | 0.00 | 1 | 1012.8 |
| 20260505022434 | 52 | 9 | 5.0 | 10.0 | 0.00 | 0.00 | 0.00 | 1 | 1012.8 |
| 20260505021422 | 52 | 60 | 5.0 | 10.0 | 0.00 | 0.00 | 0.00 | 1 | 1012.8 |
| 20260505020431 | 53 | 50 | 4.0 | 10.0 | 0.00 | 0.00 | 0.00 | 1 | 1012.8 |
| 20260505015429 | 52 | 31 | 4.0 | 9.0 | 0.00 | 0.00 | 0.00 | 1 | 1012.8 |
| 20260505014356 | 53 | 38 | 5.0 | 11.0 | 0.00 | 0.00 | 0.00 | 1 | 1012.7 |